Flag for Sao Tome and Principe Weather past 2 weeks in São Tomé, Sao Tome and Principe

Now
77 °F

Passing clouds.


Feels Like: 78 °F
Forecast: 76 / 82 °F
Wind: 5 mph from South

Location: S. Tome

Current Time: Dec 19, 2014 at 2:15:49 AM

Latest Report: Dec 19, 2014 at 12:00 AM


Visibility: N/A

Pressure: 29.89 "Hg

Humidity: 89%

Dew point: 73 °F

Location of São ToméLocation

Historic Weather in São Tomé — Graph

°F

São Tomé temperature yesterday

Maximum temperature yesterday: 84 °F (at 12:00 PM)
Minimum temperature yesterday: 73 °F (at 2:00 AM)
Average temperature yesterday: 78 °F

Past Weeks' High & Low Weather Summary

 TemperatureHumidityPressure
High86 °F (Dec 4, 11:00 AM)100% (Dec 7, 6:00 AM)30.01 "Hg (Dec 7, 6:00 AM)
Low72 °F (Dec 4, 3:00 AM)70% (Dec 5, 10:00 AM)29.77 "Hg (Dec 12, 4:00 PM)
Average79 °F86%29.88 "Hg
* Reported Midnight between Dec 3 and Dec 4 — Midnight between Dec 18 and Dec 19, São Tomé, Weather by CustomWeather, © 2014

Note: Actual official high and low records may vary slightly from our data, if they occured in-between our weather recording intervals... More about our weather records

Advertising

São Tomé weather history for previous 24 hours

 ConditionsComfort  
Time TempWeatherWind HumidityBarometerVisibility
12:00 AM
Dec 19
77 °FPassing clouds.5 mph89%29.89 "HgN/A
11:00 PM
Dec 18
77 °FPassing clouds.2 mph89%29.92 "HgN/A
10:00 PM77 °FPassing clouds.5 mph94%29.92 "HgN/A
8:00 PM77 °FPassing clouds.7 mph94%29.92 "HgN/A
7:00 PM77 °FPassing clouds.9 mph94%29.89 "HgN/A
6:00 PM77 °FPassing clouds.9 mph94%29.86 "HgN/A
5:00 PM79 °FPartly sunny.7 mph89%29.86 "HgN/A
4:00 PM79 °FPartly sunny.14 mph89%29.86 "HgN/A
3:00 PM81 °FPartly sunny.12 mph89%29.83 "HgN/A
2:00 PM82 °FBroken clouds.5 mph84%29.86 "HgN/A
1:00 PM81 °FPartly sunny.7 mph89%29.89 "HgN/A
12:00 PM84 °FPartly sunny.5 mph79%29.92 "HgN/A
10:00 AM82 °FPartly sunny.3 mph84%29.95 "HgN/A
9:00 AM79 °FBroken clouds.3 mph89%29.95 "HgN/A
8:00 AM77 °FThunderstorms. Broken clouds.2 mph89%29.95 "HgN/A
7:00 AM77 °FPartly sunny.No wind89%29.92 "HgN/A
4:00 AM73 °FPassing clouds.7 mph94%29.86 "HgN/A
3:00 AM73 °FPassing clouds.5 mph94%29.86 "HgN/A
2:00 AM73 °FPassing clouds.5 mph94%29.86 "HgN/A
Weather by CustomWeather, © 2014

See weather overviewHow to use our weather pages